This is the latest recevied weather packets stored in our database for station/object KA1JKB. If no packets are shown the sender has not sent any weather packets the latest 10 day(s).
| Time | Temp. | Humidity | Pressure | Rain* | Wind** | Luminosity | Snow |
|---|---|---|---|---|---|---|---|
| 1777777260 | 0.56° C | 85% | 1013.6 hPa | 0 mm | - | 0 W/m² | - |
| 1777776957 | 0.56° C | 83% | 1013.7 hPa | 0 mm | - | 0 W/m² | - |
| 1777776655 | 0° C | 83% | 1013.7 hPa | 0 mm | - | 0 W/m² | - |
| 1777776350 | -0.56° C | 84% | 1013.8 hPa | 0 mm | - | 0 W/m² | - |
| 1777776048 | -0.56° C | 82% | 1013.7 hPa | 0 mm | - | 0 W/m² | - |
| 1777775744 | 0° C | 82% | 1013.6 hPa | 0 mm | - | 0 W/m² | - |
| 1777775442 | 0° C | 82% | 1013.7 hPa | 0 mm | - | 0 W/m² | - |
| 1777775138 | 0.56° C | 80% | 1013.8 hPa | 0 mm | - | 0 W/m² | - |
| 1777774833 | 0.56° C | 81% | 1013.5 hPa | 0 mm | - | 0 W/m² | - |
| 1777774530 | 0.56° C | 80% | 1013.8 hPa | 0 mm | - | 0 W/m² | - |
| 1777774227 | 0.56° C | 80% | 1013.7 hPa | 0 mm | - | 0 W/m² | - |
| 1777773924 | 0.56° C | 79% | 1013.6 hPa | 0 mm | - | 0 W/m² | - |
| 1777773621 | 0.56° C | 78% | 1013.8 hPa | 0 mm | - | 0 W/m² | - |
| 1777773317 | 1.11° C | 77% | 1013.5 hPa | 0 mm | - | 0 W/m² | - |
| 1777773015 | 1.11° C | 77% | 1013.8 hPa | 0 mm | - | 0 W/m² | - |
| 1777772711 | 1.11° C | 77% | 1013.7 hPa | 0 mm | - | 0 W/m² | - |
| 1777772409 | 1.67° C | 77% | 1013.6 hPa | 0 mm | - | 0 W/m² | - |
| 1777772106 | 1.67° C | 74% | 1013.5 hPa | 0 mm | - | 0 W/m² | - |
| 1777771803 | 1.67° C | 72% | 1013.4 hPa | 0 mm | - | 0 W/m² | - |
| 1777771501 | 1.67° C | 70% | 1013.4 hPa | 0 mm | - | 0 W/m² | - |
| 1777771196 | 2.22° C | 69% | 1013.4 hPa | 0 mm | - | 0 W/m² | - |
| 1777770894 | 2.78° C | 68% | 1013.4 hPa | 0 mm | - | 0 W/m² | - |
| 1777770591 | 3.33° C | 66% | 1013.5 hPa | 0 mm | - | 0 W/m² | - |
| 1777770287 | 3.89° C | 65% | 1013.3 hPa | 0 mm | - | 0 W/m² | - |
| 1777769984 | 4.44° C | 64% | 1013.1 hPa | 0 mm | - | 0 W/m² | - |
* Rain latest hour (hover to see other rain measurements)
** Current wind speed in m/s (hover to see current wind gust speed)